Chehalis, WA
on Monday, November 12, 2012

Monday
Previous Day Next Day
Daily Summary
 ActualAverage (KOLM)Record (KOLM)
Temperature
Mean Temperature °F 44°F  
Max Temperature 53°F 51°F 61°F (1953)
Min Temperature 46°F 37°F 12°F (1955)
Degree Days
Heating Degree Days 16 21  
Month to date heating degree days 236  
Since 1 July heating degree days 1030  
Cooling Degree Days 0 0  
Month to date cooling degree days 0  
Year to date cooling degree days 106  
Moisture
Dew Point 47°F   
Average Humidity 90    
Maximum Humidity 100    
Minimum Humidity 82    
Precipitation
Precipitation 0.04 in 0.30 in 2.89 in (1949)
Month to date precipitation 3.17  
Year to date precipitation 37.08  
Wind
Wind Speed 10 mph   
Max Wind Speed 16 mph   
Max Gust Speed 28 mph   
Visibility 9 miles   
Events Rain   

Key: T is trace of precipitation, MM is missing value
Source: NWS Daily Summary
Time(PST)TemperatureDew PointHumidity Pressure Visibility Wind DirectionWind SpeedGust SpeedPrecipitationEvents Conditions
12:15 AM 46.4°F 44.6°F 93% 30.10 in 7.0 miles South 16.1 mph 23.0 mph 0.01 in   Unknown
12:35 AM 46.4°F 44.6°F 93% 30.10 in 7.0 miles South 15.0 mph 24.2 mph 0.01 in   Unknown
1:15 AM 46.4°F 44.6°F 93% 30.11 in 5.0 miles South 15.0 mph 21.9 mph N/A Rain Light Rain
1:35 AM 46.4°F 44.6°F 93% 30.10 in 7.0 miles South 16.1 mph 27.6 mph N/A   Unknown
1:55 AM 46.4°F 44.6°F 93% 30.10 in 9.0 miles SSW 13.8 mph 23.0 mph N/A Rain Light Rain
2:15 AM 46.4°F 44.6°F 93% 30.10 in 5.0 miles South 11.5 mph 18.4 mph 0.01 in   Mist
2:35 AM 46.4°F 44.6°F 93% 30.11 in 5.0 miles SSW 9.2 mph 17.3 mph 0.01 in Rain Light Rain
3:15 AM 46.4°F 44.6°F 93% 30.10 in 9.0 miles South 9.2 mph 18.4 mph N/A   Unknown
3:35 AM 46.4°F 44.6°F 93% 30.10 in 5.0 miles South 9.2 mph 16.1 mph N/A   Mist
4:15 AM 46.4°F 46.4°F 100% 30.10 in 7.0 miles SSW 6.9 mph - 0.01 in Rain Light Rain
4:35 AM 46.4°F 46.4°F 100% 30.11 in 9.0 miles South 8.1 mph - 0.02 in   Unknown
4:55 AM 48.2°F 46.4°F 93% 30.11 in 10.0 miles South 10.4 mph - 0.02 in   Unknown
5:15 AM 48.2°F 46.4°F 93% 30.11 in 9.0 miles South 8.1 mph - N/A   Unknown
5:35 AM 48.2°F 46.4°F 93% 30.11 in 10.0 miles South 10.4 mph - N/A   Unknown
5:55 AM 48.2°F 46.4°F 93% 30.12 in 10.0 miles South 9.2 mph - N/A   Unknown
6:15 AM 48.2°F 46.4°F 93% 30.12 in 7.0 miles South 8.1 mph - N/A Rain Light Rain
6:35 AM 48.2°F 46.4°F 93% 30.13 in 10.0 miles South 6.9 mph - N/A   Unknown
6:55 AM 48.2°F 46.4°F 93% 30.13 in 10.0 miles South 9.2 mph - N/A   Unknown
7:15 AM 48.2°F 46.4°F 93% 30.14 in 6.0 miles South 9.2 mph 16.1 mph N/A   Mist
7:35 AM 48.2°F 46.4°F 93% 30.14 in 7.0 miles South 9.2 mph - 0.01 in   Unknown
7:55 AM 48.2°F 46.4°F 93% 30.15 in 10.0 miles South 8.1 mph - 0.01 in   Unknown
8:15 AM 48.2°F 46.4°F 93% 30.16 in 10.0 miles South 6.9 mph - N/A   Unknown
8:35 AM 48.2°F 46.4°F 93% 30.16 in 7.0 miles South 4.6 mph - N/A   Unknown
9:15 AM 50.0°F 46.4°F 87% 30.16 in 6.0 miles South 5.8 mph - N/A   Mist
9:35 AM 50.0°F 46.4°F 87% 30.16 in 7.0 miles South 6.9 mph - N/A   Unknown
9:55 AM 50.0°F 46.4°F 87% 30.17 in 9.0 miles SSE 6.9 mph - N/A   Unknown
10:15 AM 50.0°F 46.4°F 87% 30.17 in 10.0 miles SSE 6.9 mph - N/A   Unknown
10:35 AM 50.0°F 46.4°F 87% 30.17 in 9.0 miles SSE 6.9 mph - N/A   Unknown
10:55 AM 51.8°F 48.2°F 88% 30.17 in 10.0 miles SSE 8.1 mph - N/A   Unknown
11:15 AM 51.8°F 48.2°F 88% 30.17 in 10.0 miles South 9.2 mph - N/A   Unknown
11:35 AM 53.6°F 48.2°F 82% 30.18 in 10.0 miles South 8.1 mph - N/A   Unknown
11:55 AM 53.6°F 48.2°F 82% 30.18 in 9.0 miles South 9.2 mph - N/A   Unknown
12:15 PM 53.6°F 48.2°F 82% 30.18 in 10.0 miles SSE 6.9 mph - N/A   Unknown
12:35 PM 53.6°F 48.2°F 82% 30.18 in 10.0 miles SSE 9.2 mph - N/A   Unknown
12:55 PM 53.6°F 48.2°F 82% 30.18 in 10.0 miles South 8.1 mph - N/A   Unknown
1:15 PM 53.6°F 48.2°F 82% 30.18 in 10.0 miles South 9.2 mph - N/A   Unknown
1:35 PM 53.6°F 48.2°F 82% 30.18 in 10.0 miles SSE 8.1 mph - N/A   Unknown
1:55 PM 53.6°F 48.2°F 82% 30.18 in 10.0 miles SSE 5.8 mph - N/A   Unknown
2:15 PM 53.6°F 48.2°F 82% 30.18 in 10.0 miles SSE 8.1 mph - N/A   Unknown
2:35 PM 53.6°F 48.2°F 82% 30.18 in 10.0 miles South 6.9 mph - N/A   Unknown
2:55 PM 53.6°F 48.2°F 82% 30.18 in 10.0 miles SSE 8.1 mph - N/A   Unknown
3:15 PM 53.6°F 48.2°F 82% 30.18 in 10.0 miles South 10.4 mph - N/A   Unknown
3:35 PM 53.6°F 48.2°F 82% 30.18 in 10.0 miles South 10.4 mph - N/A   Unknown
3:55 PM 51.8°F 48.2°F 88% 30.19 in 10.0 miles South 9.2 mph - N/A   Unknown
4:15 PM 51.8°F 48.2°F 88% 30.19 in 10.0 miles South 8.1 mph - N/A   Unknown
4:35 PM 50.0°F 48.2°F 94% 30.19 in 10.0 miles South 6.9 mph - N/A   Unknown
4:55 PM 50.0°F 48.2°F 94% 30.19 in 10.0 miles South 6.9 mph - N/A   Unknown
5:15 PM 50.0°F 48.2°F 94% 30.19 in 10.0 miles South 5.8 mph - N/A   Unknown
5:35 PM 50.0°F 48.2°F 94% 30.20 in 10.0 miles South 4.6 mph - N/A   Unknown
5:55 PM 50.0°F 48.2°F 94% 30.20 in 9.0 miles South 4.6 mph - N/A   Unknown
6:15 PM 50.0°F 48.2°F 94% 30.20 in 10.0 miles South 4.6 mph - N/A   Unknown
6:35 PM 50.0°F 48.2°F 94% 30.21 in 10.0 miles SSE 6.9 mph - N/A   Unknown
6:55 PM 50.0°F 48.2°F 94% 30.21 in 10.0 miles SSE 5.8 mph - N/A   Unknown
7:15 PM 50.0°F 48.2°F 94% 30.21 in 10.0 miles South 5.8 mph - N/A   Unknown
7:35 PM 50.0°F 48.2°F 94% 30.21 in 10.0 miles SSE 5.8 mph - N/A   Unknown
7:55 PM 50.0°F 48.2°F 94% 30.22 in 10.0 miles South 8.1 mph - N/A   Unknown
8:15 PM 50.0°F 48.2°F 94% 30.22 in 10.0 miles South 6.9 mph - N/A   Unknown
8:35 PM 50.0°F 48.2°F 94% 30.22 in 10.0 miles SSW 5.8 mph - N/A   Unknown
8:55 PM 48.2°F 46.4°F 93% 30.22 in 10.0 miles SSW 4.6 mph - N/A   Unknown
9:15 PM 48.2°F 46.4°F 93% 30.23 in 10.0 miles SSW 4.6 mph - N/A   Unknown
9:35 PM 48.2°F 46.4°F 93% 30.23 in 10.0 miles SSW 4.6 mph - N/A   Unknown
9:55 PM 48.2°F 48.2°F 100% 30.23 in 10.0 miles South 5.8 mph - N/A   Unknown
10:15 PM 50.0°F 48.2°F 94% 30.23 in 10.0 miles South 4.6 mph - N/A   Unknown
10:35 PM 50.0°F 48.2°F 94% 30.24 in 10.0 miles SSE 6.9 mph - N/A   Unknown
11:15 PM 50.0°F 46.4°F 87% 30.24 in 10.0 miles South 5.8 mph - N/A   Unknown
11:35 PM 50.0°F 46.4°F 87% 30.24 in 10.0 miles South 6.9 mph - N/A   Unknown
11:55 PM 50.0°F 46.4°F 87% 30.24 in 8.0 miles South 8.1 mph - N/A   Unknown
Moon Phase
Nov. 12 Nov. 13 Nov. 20 Nov. 28 Dec. 06
Sunrise:07:10 AM (PST) Moon Rise:05:40 AM (PST)11/12
Sunset:04:40 PM (PST) Moon Set:03:51 PM (PST)11/12

Copyright © 2014 The Weather Underground, Inc.